Stations météo

réclame
Mon MeteoGroup
Timrå/Midlanda, Suède (2366): Température de l'air & dewpoint: 12.02.2019 19:00:00 - 18.02.2019 19:00:00 (CET)Timrå/Midlanda, Suède (2366): Vitesse du vent: 12.02.2019 19:00:00 - 18.02.2019 19:00:00 (CET)Timrå/Midlanda, Suède (2366): Direction du vent: 12.02.2019 19:00:00 - 18.02.2019 19:00:00 (CET)Timrå/Midlanda, Suède (2366): reduced air pressure: 12.02.2019 19:00:00 - 18.02.2019 19:00:00 (CET)Timrå/Midlanda, Suède (2366): visibility: 12.02.2019 19:00:00 - 18.02.2019 19:00:00 (CET)
Date & Time tt [°C] td [°C] ff [km/h] ff [knt] dd ppp [hPa] vv [km]
18.02.2019 19:00:00 0,0 -0,8 4 2 SSW 1000,3 10
18.02.2019 18:00:00 1,3 0,0 0 0 N 1000,6 10
18.02.2019 17:00:00 1,1 -0,6 2 1 - 1001,1 10
18.02.2019 16:00:00 3,3 0,6 5 3 S 1001,3 10
18.02.2019 15:00:00 3,4 0,8 0 0 N 1001,8 10
18.02.2019 14:00:00 2,3 0,0 0 0 N 1002,4 10
18.02.2019 13:00:00 2,1 0,3 5 3 ESE 1003,2 10
18.02.2019 12:00:00 1,1 -0,2 4 2 - 1004,3 10
18.02.2019 11:00:00 1,3 0,0 11 6 SSE 1004,9 10
18.02.2019 10:00:00 0,5 -0,9 8 4 SE 1005,8 10
18.02.2019 09:00:00 -0,2 -1,2 8 4 SE 1006,5 10
18.02.2019 08:00:00 -0,3 -1,6 9 5 SE 1007,4 10
18.02.2019 07:00:00 -0,5 -2,1 9 5 SSE 1008,1 10
18.02.2019 06:00:00 -0,8 -2,4 16 9 SE 1009,2 10
18.02.2019 05:00:00 -0,3 -2,4 16 9 SE 1010,4 10
18.02.2019 04:00:00 0,2 -2,2 21 11 SE 1011,4 10
18.02.2019 03:00:00 0,2 -2,1 21 11 SE 1012,8 10
18.02.2019 02:00:00 0,3 -2,5 15 8 SE 1014,3 10
18.02.2019 01:00:00 0,0 -2,4 18 10 SE 1015,2 10
18.02.2019 00:00:00 -0,1 -2,8 13 7 SE 1016,2 10
17.02.2019 23:00:00 -0,5 -3,0 13 7 ESE 1017,1 10
17.02.2019 22:00:00 0,0 -3,5 15 8 SE 1018,0 10
17.02.2019 21:00:00 -0,5 -3,8 9 5 SE 1018,7 10
17.02.2019 20:00:00 -1,3 -4,8 2 1 - 1018,9 10
17.02.2019 19:00:00 -1,6 -4,9 8 4 ESE 1019,3 10
17.02.2019 18:00:00 -2,7 -5,4 4 2 S 1019,9 10
17.02.2019 17:00:00 -2,8 -6,0 4 2 SSE 1019,7 10
17.02.2019 16:00:00 -0,6 -5,9 8 4 SE 1019,5 10
17.02.2019 15:00:00 2,9 -6,1 8 4 S 1019,2 10
17.02.2019 14:00:00 4,6 -6,4 0 0 N 1018,9 10
17.02.2019 13:00:00 3,5 -5,3 8 4 NW 1018,6 10
17.02.2019 12:00:00 2,8 -5,2 16 9 NW 1018,4 10
17.02.2019 11:00:00 2,0 -5,5 8 4 NW 1018,2 10
17.02.2019 10:00:00 0,6 -5,8 11 6 NW 1017,7 10
17.02.2019 09:00:00 -0,6 -6,0 4 2 - 1016,9 10
17.02.2019 08:00:00 -0,3 -6,0 11 6 NW 1015,7 10
17.02.2019 07:00:00 -0,6 -6,6 16 9 WNW 1015,5 10
17.02.2019 06:00:00 -0,5 -6,5 11 6 NW 1014,9 10
17.02.2019 05:00:00 -0,2 -6,1 15 8 W 1014,1 10
17.02.2019 04:00:00 0,2 -6,0 8 4 WNW 1013,8 10
17.02.2019 03:00:00 0,5 -5,6 13 7 WNW 1012,8 10
17.02.2019 02:00:00 1,4 -5,4 16 9 WNW 1011,9 10
17.02.2019 01:00:00 1,6 -5,7 22 12 WNW 1010,4 10
17.02.2019 00:00:00 2,0 -6,1 18 10 W 1009,8 10
16.02.2019 23:00:00 2,2 -5,7 16 9 W 1009,3 10
16.02.2019 22:00:00 2,6 -5,4 13 7 WNW 1008,3 10
16.02.2019 21:00:00 2,6 -5,1 18 10 W 1007,0 10
16.02.2019 20:00:00 3,2 -5,0 16 9 W 1006,9 10
16.02.2019 19:00:00 3,4 -4,5 16 9 W 1006,3 10
16.02.2019 18:00:00 3,7 -4,4 11 6 W 1005,9 10
16.02.2019 17:00:00 4,1 -3,0 15 8 W 1004,8 10
16.02.2019 16:00:00 5,1 -2,4 18 10 W 1004,1 10
16.02.2019 15:00:00 5,9 -1,9 11 6 W 1003,1 10
16.02.2019 14:00:00 6,5 -1,3 13 7 W 1003,2 10
16.02.2019 13:00:00 4,2 -0,1 8 4 WNW 1002,4 10
16.02.2019 12:00:00 -1,1 -1,1 0 0 N 1002,2 10
16.02.2019 11:00:00 -2,1 -2,1 4 2 NNW 1002,8 10
16.02.2019 10:00:00 -3,4 -3,5 4 2 - 1002,7 10
16.02.2019 09:00:00 -5,3 -5,6 0 0 N 1002,4 10
16.02.2019 08:00:00 -6,7 -7,2 4 2 - 1002,1 10
16.02.2019 07:00:00 -7,1 -7,7 4 2 - 1001,8 10
16.02.2019 06:00:00 -7,1 -7,5 0 0 N 1001,7 10
16.02.2019 05:00:00 -6,4 -6,8 2 1 - 1002,0 10
16.02.2019 04:00:00 -5,9 -6,2 0 0 N 1002,9 0,7
16.02.2019 03:00:00 -6,5 -6,9 0 0 N 1003,7 0,3
16.02.2019 02:00:00 -5,5 -5,6 2 1 - 1004,8 0,3
16.02.2019 01:00:00 -5,2 -5,3 0 0 N 1005,8 0,1
16.02.2019 00:00:00 -6,2 -6,2 0 0 N 1006,8 9
15.02.2019 23:00:00 -4,1 -4,1 0 0 N 1007,9 0,2
15.02.2019 22:00:00 -2,8 -2,9 0 0 N 1009,2 10
15.02.2019 21:00:00 -1,8 -1,9 2 1 - 1010,1 10
15.02.2019 20:00:00 -0,8 -1,5 5 3 NNW 1011,2 10
15.02.2019 19:00:00 0,2 -1,2 4 2 - 1012,3 10
15.02.2019 18:00:00 0,6 -1,3 2 1 - 1012,7 10
15.02.2019 17:00:00 3,4 0,1 5 3 SSE 1013,4 10
15.02.2019 16:00:00 3,9 0,0 11 6 ESE 1013,7 10
15.02.2019 15:00:00 3,9 -0,8 5 3 S 1013,8 10
15.02.2019 14:00:00 6,2 0,6 8 4 SSE 1014,1 10
15.02.2019 13:00:00 4,7 -0,2 4 2 SSE 1014,3 10
15.02.2019 12:00:00 5,9 -0,7 2 1 - 1014,4 10
15.02.2019 11:00:00 1,3 -1,7 0 0 N 1014,5 10
15.02.2019 10:00:00 0,1 -2,0 4 2 - 1014,6 10
15.02.2019 09:00:00 -1,6 -3,3 0 0 N 1014,4 10
15.02.2019 08:00:00 -2,4 -3,8 4 2 N 1014,2 10
15.02.2019 07:00:00 -1,9 -3,6 2 1 - 1014,4 10
15.02.2019 06:00:00 -1,4 -3,4 0 0 N 1014,6 10
15.02.2019 05:00:00 -2,0 -4,6 5 3 SSW 1014,8 10
15.02.2019 04:00:00 0,5 -3,8 4 2 - 1014,7 10
15.02.2019 03:00:00 3,8 -3,0 8 4 SW 1014,5 10
15.02.2019 02:00:00 5,6 -2,4 9 5 W 1014,2 10
15.02.2019 01:00:00 6,4 -2,1 11 6 W 1013,9 10
15.02.2019 00:00:00 5,0 -1,7 8 4 WSW 1013,3 10
14.02.2019 23:00:00 2,5 -2,3 5 3 - 1013,3 10
14.02.2019 22:00:00 6,7 -2,3 15 8 WSW 1012,7 10
14.02.2019 21:00:00 7,1 -1,6 15 8 WSW 1012,6 10
14.02.2019 20:00:00 7,3 -0,3 13 7 WSW 1011,6 10
14.02.2019 19:00:00 0,6 0,6 4 2 - 1010,9 10
14.02.2019 18:00:00 -3,5 -3,8 0 0 N 1010,8 10
14.02.2019 17:00:00 -1,2 -2,9 4 2 NNE 1010,4 10
14.02.2019 16:00:00 0,4 -2,3 8 4 SE 1010,0 10
14.02.2019 15:00:00 1,1 -1,0 2 1 - 1010,2 10
14.02.2019 14:00:00 3,4 -0,5 4 2 - 1009,2 10
14.02.2019 13:00:00 1,3 -1,4 4 2 - 1009,4 10
14.02.2019 12:00:00 0,8 -1,5 4 2 - 1010,2 10
14.02.2019 11:00:00 -1,0 -2,4 0 0 N 1010,7 10
14.02.2019 10:00:00 -1,0 -1,5 4 2 - 1011,6 10
14.02.2019 09:00:00 -2,0 -2,1 0 0 N 1013,8 10
14.02.2019 08:00:00 -2,3 -2,4 0 0 N 1014,1 10
14.02.2019 07:00:00 -1,5 -1,7 4 2 NW 1014,4 10
14.02.2019 06:00:00 -1,1 -1,7 0 0 N 1014,7 10
14.02.2019 05:00:00 0,1 -1,1 2 1 - 1015,5 10
14.02.2019 04:00:00 -0,5 -1,4 0 0 N 1016,0 10
14.02.2019 03:00:00 -1,1 -2,0 2 1 - 1017,4 10
14.02.2019 02:00:00 -1,8 -2,8 0 0 N 1017,9 10
14.02.2019 01:00:00 -2,9 -3,9 0 0 N 1017,8 10
14.02.2019 00:00:00 -1,8 -3,4 5 3 ENE 1017,2 10
13.02.2019 23:00:00 1,1 -2,2 4 2 - 1016,1 10
13.02.2019 22:00:00 3,8 -1,7 13 7 W 1014,9 10
13.02.2019 21:00:00 4,7 -2,3 8 4 W 1013,6 10
13.02.2019 20:00:00 5,2 -2,2 21 11 WNW 1011,9 10
13.02.2019 19:00:00 5,3 -1,6 24 13 WNW 1009,9 10
13.02.2019 18:00:00 5,8 -1,4 26 14 WNW 1008,3 10
13.02.2019 17:00:00 5,7 -0,8 31 17 W 1007,2 10
13.02.2019 16:00:00 6,2 -0,4 34 18 WNW 1005,9 10
13.02.2019 15:00:00 6,8 -0,1 28 15 W 1004,8 10
13.02.2019 14:00:00 6,0 0,4 22 12 W 1004,5 10
13.02.2019 13:00:00 5,2 0,0 11 6 WNW 1004,1 10
13.02.2019 12:00:00 4,0 0,2 4 2 - 1004,3 10
13.02.2019 11:00:00 -1,9 -2,1 5 3 - 1004,0 10
13.02.2019 10:00:00 -7,4 -8,2 4 2 - 1003,5 10
13.02.2019 09:00:00 -8,8 -9,7 2 1 - 1003,0 10
13.02.2019 08:00:00 -8,8 -9,6 4 2 - 1002,3 10
13.02.2019 07:00:00 -6,6 -7,0 4 2 - 1001,6 10
13.02.2019 06:00:00 -5,7 -6,1 4 2 NW 1001,5 10
13.02.2019 05:00:00 -5,6 -6,0 4 2 NNW 1001,1 10
13.02.2019 04:00:00 -5,7 -6,1 0 0 N 1001,5 10
13.02.2019 03:00:00 -5,5 -5,9 4 2 - 1001,9 4,5
13.02.2019 02:00:00 -6,7 -7,1 0 0 N 1002,6 10
13.02.2019 01:00:00 -6,6 -6,9 0 0 N 1003,8 10
13.02.2019 00:00:00 -6,4 -6,7 0 0 N 1005,7 10
12.02.2019 23:00:00 -6,7 -7,1 4 2 - 1007,0 10
12.02.2019 22:00:00 -6,7 -7,0 0 0 N 1007,9 10
12.02.2019 21:00:00 -6,9 -7,5 2 1 N 1009,0 10
12.02.2019 20:00:00 -6,3 -6,8 0 0 N 1010,0 10
12.02.2019 19:00:00 -5,9 -6,5 0 0 N 1011,1 10

tt = Température de l'air
td = dewpoint
ff = Vitesse du vent
dd = Direction du vent
ppp = reduced air pressure
vv = visibility

stations d'obs. à proximité